Santa Fe, NM

7:34 PM MDT on March 28, 2017 (GMT -0600)
Santa Fe Municipal

Weather History for KSAF - August, 2013

Change the Weather History Date:

Monday, August 19, 2013

  Actual Average Record
Temperature  
Mean Temperature 74 °F -  
Max Temperature 89 °F 90 °F 95 °F (2007)
Min Temperature 61 °F 57 °F 53 °F (1997)
Cooling Degree Days 10    
Growing Degree Days 24 (Base 50)    
Moisture  
Dew Point 48 °F    
Average Humidity 42    
Maximum Humidity 65    
Minimum Humidity 23    
Precipitation  
Precipitation 0.00 in - - ()
Sea Level Pressure  
Sea Level Pressure 29.94 in    
Wind  
Wind Speed 8 mph (North)    
Max Wind Speed 20 mph    
Max Gust Speed 29 mph    
Visibility 10 miles    
Events Rain    
Averages and records for this station are not official NWS values.
T = Trace of Precipitation, MM = Missing Value Source: NWS Daily Summary

Daily Weather History Graph

Daily Weather History Graph

Search for Another Location

Airport or City:

Trip Planner

Search our weather history database for the weather conditions in past years. The results will help you decide how hot, cold, wet, or windy it might be!

Date:

Astronomy

Aug. 19, 2013 Rise Set
Actual Time 6:26 AM MDT 7:48 PM MDT
Civil Twilight 5:59 AM MDT 8:15 PM MDT
Nautical Twilight 5:27 AM MDT 8:47 PM MDT
Astronomical Twilight 4:54 AM MDT 9:20 PM MDT
Moon 6:41 PM MDT (8/19) 4:50 AM MDT (8/19)
Length of Visible Light 14h 15m
Length of Day
13h 21m
Waxing Gibbous, 97% of the Moon is Illuminated
Aug 19
Waxing Gibbous
Aug 20
Full
Aug 28
Last Quarter
Sep 5
New
Sep 12
First Quarter

Hourly Weather History & Observations

Time (MDT) Temp. Dew Point Humidity Pressure Visibility Wind Dir Wind Speed Gust Speed Precip Events Conditions
12:53 AM 68.0 °F 46.9 °F 47% 29.97 in 10.0 mi NE 4.6 mph - N/A   Mostly Cloudy
1:53 AM 64.9 °F 46.9 °F 52% 29.96 in 10.0 mi North 3.5 mph - N/A   Clear
2:53 AM 64.9 °F 48.0 °F 54% 29.96 in 10.0 mi NNE 5.8 mph - N/A   Partly Cloudy
3:53 AM 64.0 °F 48.9 °F 58% 29.95 in 10.0 mi NNW 4.6 mph - 0.00 in   Partly Cloudy
4:53 AM 64.0 °F 48.0 °F 56% 29.93 in 10.0 mi NNE 4.6 mph - N/A   Clear
5:53 AM 61.0 °F 48.0 °F 62% 29.95 in 10.0 mi North 8.1 mph - N/A   Clear
6:53 AM 63.0 °F 48.9 °F 60% 29.96 in 10.0 mi North 9.2 mph - N/A   Clear
7:53 AM 64.0 °F 50.0 °F 60% 29.99 in 10.0 mi North 10.4 mph - N/A   Clear
8:53 AM 73.0 °F 50.0 °F 44% 29.96 in 10.0 mi North 12.7 mph - N/A   Clear
9:53 AM 75.9 °F 48.0 °F 37% 29.97 in 10.0 mi North 11.5 mph - N/A   Clear
10:53 AM 81.0 °F 46.0 °F 29% 29.95 in 10.0 mi North 10.4 mph - N/A   Clear
11:53 AM 82.9 °F 45.0 °F 26% 29.93 in 10.0 mi Variable 6.9 mph - N/A   Clear
12:53 PM 86.0 °F 46.0 °F 25% 29.90 in 10.0 mi WSW 9.2 mph - N/A   Clear
1:53 PM 88.0 °F 46.9 °F 24% 29.88 in 10.0 mi West 11.5 mph - N/A   Partly Cloudy
2:53 PM 86.0 °F 46.0 °F 25% 29.86 in 10.0 mi WNW 10.4 mph - 0.00 in   Partly Cloudy
3:53 PM 84.9 °F 46.0 °F 26% 29.85 in 10.0 mi West 8.1 mph - N/A   Clear
4:53 PM 86.0 °F 44.1 °F 23% 29.83 in 10.0 mi WSW 5.8 mph - N/A   Clear
5:53 PM 84.0 °F 42.1 °F 23% 29.85 in 10.0 mi East 12.7 mph 17.3 mph N/A   Partly Cloudy
6:53 PM 82.9 °F 41.0 °F 23% 29.85 in 10.0 mi East 10.4 mph - N/A   Clear
7:53 PM 77.0 °F 46.9 °F 34% 29.93 in 10.0 mi SSE 19.6 mph 28.8 mph N/A   Mostly Cloudy
8:07 PM 75.2 °F 48.2 °F 38% 30.23 in 10.0 mi South 15.0 mph - N/A   Mostly Cloudy
8:53 PM 72.0 °F 51.1 °F 48% 29.94 in 10.0 mi SE 13.8 mph - 0.00 in   Clear
9:53 PM 70.0 °F 54.0 °F 57% 29.94 in 10.0 mi ESE 13.8 mph - 0.00 in Rain Light Rain
10:53 PM 68.0 °F 53.1 °F 59% 29.96 in 10.0 mi South 13.8 mph - 0.00 in   Mostly Cloudy
11:53 PM 64.9 °F 53.1 °F 65% 29.97 in 10.0 mi SSE 11.5 mph - N/A   Clear